Date String (YYYY-MM-DD hh:mm:ss) UTC,Instrument flags,Ambient pressure (hPa),Sample flow (lpm),Bypass flow (lpm),Sample temperature (°C),Ambient temperature (°C),ASC tube jacket temperature (°C),LED temperature (°C),Box temperature (°C),Sample RH (%),Span deviation,Mass concentration (μg/m³),Mass concentration (μg/m³),Mass concentration (μg/m³)
DateTimeUTC,F1_M11,P_M11,Q1_M11,Q2_M11,T1_M11,T2_M11,T3_M11,T4_M11,T5_M11,U1_M11,ZSPAN_M11,X0_M11,X2_M11,X1_M11
2023-04-14 16:00:00,,0822.4,5.00,0.00,23.2,21.5,00.0,31.6,24.8,20.7,0000.0,0007.01,0004.39,0004.02
2023-04-14 16:01:00,,0822.6,4.98,0.00,23.2,21.5,00.0,31.6,24.8,20.7,0000.0,0006.90,0004.37,0004.00
2023-04-14 16:02:00,,0822.6,5.00,0.00,23.2,21.5,00.0,31.6,24.7,20.7,0000.0,0006.69,0004.33,0003.99
2023-04-14 16:03:00,,0822.5,5.00,0.00,23.2,21.5,00.0,31.6,24.7,20.7,0000.0,0006.58,0004.30,0003.98
2023-04-14 16:04:00,,0822.6,5.00,0.00,23.2,21.4,00.0,31.6,24.7,20.7,0000.0,0006.60,0004.28,0003.98
2023-04-14 16:05:00,,0822.5,5.01,0.00,23.2,21.4,00.0,31.6,24.8,20.6,0000.0,0006.64,0004.26,0003.98
2023-04-14 16:06:00,,0822.6,5.01,0.00,23.2,21.4,00.0,31.6,24.8,20.6,0000.0,0006.54,0004.24,0003.97
2023-04-14 16:07:00,,0822.6,5.01,0.00,23.2,21.4,00.0,31.6,24.8,20.6,0000.0,0006.48,0004.23,0003.96
2023-04-14 16:08:00,,0822.4,5.00,0.00,23.2,21.4,00.0,31.6,24.7,20.6,0000.0,0006.24,0004.19,0003.96
2023-04-14 16:09:00,,0822.5,4.99,0.00,23.2,21.4,00.0,31.6,24.8,20.6,0000.0,0006.18,0004.18,0003.97
2023-04-14 16:10:00,,0822.4,4.99,0.00,23.2,21.4,00.0,31.6,24.7,20.6,0000.0,0006.02,0004.18,0003.98
2023-04-14 16:11:00,,0822.7,5.00,0.00,23.2,21.4,00.0,31.6,24.7,20.7,0000.0,0006.15,0004.18,0003.98
2023-04-14 16:12:00,,0822.4,5.01,0.00,23.2,21.4,00.0,31.6,24.7,20.7,0000.0,0006.16,0004.18,0003.98
2023-04-14 16:13:00,,0822.6,5.00,0.00,23.2,21.4,00.0,31.6,24.7,20.7,0000.0,0006.34,0004.19,0003.98
2023-04-14 16:14:00,,0822.6,4.99,0.00,23.2,21.4,00.0,31.5,24.7,20.7,0000.0,0006.43,0004.20,0003.98
2023-04-14 16:15:00,,0822.6,5.00,0.00,23.2,21.3,00.0,31.5,24.7,20.8,0000.0,0006.50,0004.21,0003.98
2023-04-14 16:16:00,,0823.1,5.00,0.00,23.2,21.3,00.0,31.5,24.7,20.9,0000.0,0006.64,0004.21,0003.97
2023-04-14 16:17:00,,0823.1,5.01,0.00,23.2,21.3,00.0,31.5,24.8,20.9,0000.0,0006.72,0004.22,0004.00
2023-04-14 16:18:00,,0822.6,5.01,0.00,23.2,21.3,00.0,31.5,24.8,20.9,0000.0,0007.04,0004.26,0004.01
2023-04-14 16:19:00,,0822.6,5.01,0.00,23.2,21.3,00.0,31.5,24.8,20.9,0000.0,0007.15,0004.29,0004.03
2023-04-14 16:20:00,,0822.6,5.01,0.00,23.2,21.3,00.0,31.5,24.8,20.9,0000.0,0007.28,0004.33,0004.04
2023-04-14 16:21:00,,0822.6,4.99,0.00,23.2,21.4,00.0,31.5,24.8,20.8,0000.0,0007.34,0004.34,0004.05
2023-04-14 16:22:00,,0822.8,4.99,0.00,23.2,21.4,00.0,31.5,24.8,20.8,0000.0,0007.03,0004.36,0004.07
2023-04-14 16:23:00,,0822.6,5.00,0.00,23.2,21.4,00.0,31.5,24.8,20.9,0000.0,0007.15,0004.39,0004.07
2023-04-14 16:24:00,,0822.6,5.00,0.00,23.2,21.4,00.0,31.5,24.8,20.9,0000.0,0007.02,0004.39,0004.09
2023-04-14 16:25:00,,0822.6,5.00,0.00,23.2,21.4,00.0,31.5,24.8,21.0,0000.0,0007.13,0004.42,0004.10
2023-04-14 16:26:00,,0822.6,5.00,0.00,23.2,21.4,00.0,31.5,24.9,20.9,0000.0,0008.36,0004.41,0004.11
2023-04-14 16:27:00,,0822.6,5.00,0.00,23.2,21.3,00.0,31.5,24.8,20.9,0000.0,0008.34,0004.42,0004.12
2023-04-14 16:28:00,,0822.6,5.00,0.00,23.1,21.1,00.0,31.5,24.6,21.1,0000.0,0008.32,0004.42,0004.12
2023-04-14 16:29:00,,0822.6,5.00,0.00,23.1,21.1,00.0,31.5,24.6,21.1,0000.0,0008.16,0004.40,0004.12
2023-04-14 16:30:00,,0822.6,5.00,0.00,23.1,21.1,00.0,31.5,24.6,21.1,0000.0,0008.12,0004.39,0004.12
2023-04-14 16:31:00,,0822.6,5.00,0.00,23.1,21.1,00.0,31.5,24.5,21.0,0000.0,0008.08,0004.37,0004.11
2023-04-14 16:32:00,,0822.6,5.01,0.00,23.0,21.1,00.0,31.5,24.5,21.0,0000.0,0007.97,0004.33,0004.10
2023-04-14 16:33:00,,0822.6,4.99,0.00,23.0,21.1,00.0,31.4,24.5,21.0,0000.0,0007.96,0004.33,0004.11
2023-04-14 16:34:00,,0822.6,5.00,0.00,23.0,21.1,00.0,31.4,24.5,21.1,0000.0,0007.95,0004.35,0004.13
2023-04-14 16:35:00,,0822.7,5.00,0.00,23.0,21.1,00.0,31.4,24.6,21.0,0000.0,0008.01,0004.39,0004.14
2023-04-14 16:36:00,,0822.8,5.00,0.00,23.0,21.1,00.0,31.4,24.6,21.1,0000.0,0007.99,0004.40,0004.16
2023-04-14 16:37:00,,0822.7,5.00,0.00,23.0,21.1,00.0,31.4,24.6,21.0,0000.0,0006.32,0004.45,0004.20
2023-04-14 16:38:00,,0822.9,5.00,0.00,23.0,21.1,00.0,31.4,24.6,20.9,0000.0,0006.29,0004.48,0004.22
2023-04-14 16:39:00,,0822.7,5.01,0.00,23.0,21.2,00.0,31.4,24.5,20.9,0000.0,0006.29,0004.50,0004.25
2023-04-14 16:40:00,,0822.8,5.01,0.00,23.0,21.1,00.0,31.4,24.4,20.9,0000.0,0006.34,0004.52,0004.27
2023-04-14 16:41:00,,0822.7,5.00,0.00,23.0,20.8,00.0,31.3,24.4,21.0,0000.0,0006.35,0004.53,0004.30
2023-04-14 16:42:00,,0822.7,5.00,0.00,23.0,21.4,00.0,31.3,24.8,20.9,0000.0,0006.48,0004.57,0004.33
2023-04-14 16:43:00,,0822.7,4.99,0.00,23.1,22.3,00.0,31.2,25.0,20.8,0000.0,0007.14,0004.66,0004.39
2023-04-14 16:44:00,,0822.8,5.01,0.00,23.2,22.9,00.0,31.3,25.1,20.6,0000.0,0007.36,0004.71,0004.42
2023-04-14 16:45:00,,0822.7,5.00,0.00,23.2,22.8,00.0,31.4,25.0,20.6,0000.0,0007.39,0004.70,0004.42
2023-04-14 16:46:00,,0822.8,5.01,0.00,23.2,22.6,00.0,31.4,24.9,20.5,0000.0,0007.36,0004.68,0004.42
2023-04-14 16:47:00,,0823.0,5.00,0.00,23.2,22.5,00.0,31.4,24.9,20.5,0000.0,0007.44,0004.66,0004.42
2023-04-14 16:48:00,,0823.2,4.98,0.00,23.3,22.3,00.0,31.5,24.9,20.4,0000.0,0007.58,0004.64,0004.39
2023-04-14 16:49:00,,0822.9,5.00,0.00,23.3,22.2,00.0,31.5,24.9,20.5,0000.0,0007.57,0004.63,0004.38
2023-04-14 16:50:00,,0822.8,5.01,0.00,23.3,22.0,00.0,31.5,24.8,20.4,0000.0,0007.54,0004.63,0004.36
2023-04-14 16:51:00,,0822.9,5.01,0.00,23.2,21.8,00.0,31.5,24.7,20.3,0000.0,0007.52,0004.61,0004.34
2023-04-14 16:52:00,,0823.0,4.99,0.00,23.2,21.7,00.0,31.5,24.7,20.5,0000.0,0007.64,0004.63,0004.33
2023-04-14 16:53:00,,0822.9,4.99,0.00,23.1,21.5,00.0,31.5,24.6,20.5,0000.0,0007.61,0004.60,0004.29
2023-04-14 16:54:00,,0822.9,5.00,0.00,23.1,21.5,00.0,31.5,24.6,20.5,0000.0,0007.32,0004.52,0004.23
2023-04-14 16:55:00,,0822.9,5.00,0.00,23.0,21.4,00.0,31.5,24.5,20.5,0000.0,0007.19,0004.46,0004.18
2023-04-14 16:56:00,,0822.9,5.00,0.00,23.0,21.3,00.0,31.5,24.5,20.7,0000.0,0007.09,0004.44,0004.17
2023-04-14 16:57:00,,0823.1,5.00,0.00,23.0,21.2,00.0,31.4,24.4,20.8,0000.0,0007.10,0004.42,0004.15
2023-04-14 16:58:00,,0823.1,5.00,0.00,22.9,21.2,00.0,31.4,24.4,20.6,0000.0,0006.95,0004.42,0004.14
2023-04-14 16:59:00,,0823.0,5.00,0.00,22.9,21.2,00.0,31.4,24.4,20.7,0000.0,0006.76,0004.44,0004.14
